Location: Kosice
(48.7167°N, 21.2500°E)
Time: 08:49:47
(UTC+01:00)

ISS - Pass Details

Date: 27 January 2021
Orbit: 417 x 422 km, 51.6° (Epoch: 05 March)

Event Time Altitude Azimuth Distance (km) Brightness Sun altitude
Rises 17:58:59 0° 275° (W) 2,373 1.6 -15.4°
Reaches altitude 10° 18:01:08 10° 281° (W) 1,509 0.2 -15.8°
Maximum altitude 18:04:26 49° 357° (N) 553 -3.3 -16.3°
Enters shadow 18:05:21 37° 46° (NE) 676 -3.2 -16.5°
